Regional Weather Roundup
Issued by NWS Sioux Falls, SD

Home | Current Version | Previous Version | Graphics & Text | Print | Product List | Glossary On
Versions: 1 2 3 4 5 6 7 8 9 10 11 12 13 14 15 16 17 18 19 20 21 22 23 24 25 26 27 28 29 30 31 32 33 34 35 36 37 38 39 40 41 42 43 44 45 46 47 48 49 50
000
ASUS43 KFSD 030402
RWRFSD

WEATHER ROUNDUP FOR SE SOUTH DAKOTA/SW MINNESOTA/NW IOWA
NATIONAL WEATHER SERVICE SIOUX FALLS SD
1100 PM CDT SUN AUG 02 2015

NOTE: "FAIR" INDICATES FEW OR NO CLOUDS BELOW 12,000 FEET WITH NO
SIGNIFICANT WEATHER AND OR OBSTRUCTIONS TO VISIBILITY.


SDZ038>040-050-052>070-030500-
SOUTHEAST SOUTH DAKOTA

CITY           SKY/WX    TMP DP  RH WIND       PRES   REMARKS
BROOKINGS      CLEAR     64  55  72 CALM      29.95R
CHAMBERLAIN    CLEAR     71  59  65 NE3       29.96R
HURON          CLEAR     66  60  81 CALM      29.92R
MADISON        FAIR      63  63 100 NW7       29.94S
MITCHELL       CLEAR     67  60  78 N3        29.93R
SIOUX FALLS    CLEAR     66  58  75 N7        29.92R
WINNER         FAIR      70  59  68 E5        29.96R
YANKTON        CLEAR     70  61  73 N7        29.90R
$$

MNZ071-072-080-081-089-090-097-098-030500-
SOUTHWEST MINNESOTA

CITY           SKY/WX    TMP DP  RH WIND       PRES   REMARKS
FAIRMONT       CLEAR     64  54  68 NW6       29.88R
JACKSON        CLEAR     64  59  82 NW7       29.91R
LUVERNE        CLEAR     64  61  88 CALM      29.92R
MARSHALL       CLEAR     61  54  77 NW6       29.92R
MONTEVIDEO     CLEAR     63  52  67 N5        29.92R
PIPESTONE      CLEAR     66  57  72 CALM      29.93S
REDWOOD FALLS  CLEAR     67  58  72 NW7       29.88R
TRACY          CLEAR     66  59  77 NW5       29.91R
WINDOM         CLEAR     63  57  82 NW9       29.90S
WORTHINGTON    CLEAR     63  55  77 NW5       29.92R
$$

IAZ001>003-012>014-020>022-031-032-NEZ013-014-SDZ071-030500-
NORTHWEST IOWA

CITY           SKY/WX    TMP DP  RH WIND       PRES   REMARKS
DENISON        CLEAR     70  70 100 E3        29.87R
ESTHERVILLE    CLEAR     62  58  86 NW7       29.89R
SIOUX CITY     NOT AVBL
SPENCER        CLEAR     64  58  80 NW3       29.91R
STORM LAKE     CLEAR     70  61  73 N12       29.90S
$$

ABBREVIATIONS USED IN REMARKS
   TC - TEMPERATURE IN CELSIUS
  WCI - WIND CHILL INDEX
   HX - HEAT INDEX
  VSB - VISIBILITY



USA.gov is the U.S. government's official web portal to all federal, state and local government web resources and services.